Weather History for Bridgeport, CT

Change the Weather History Date:

Saturday, February 16, 2013

  Actual Average Record
Temperature  
Mean Temperature 36 °F 33 °F  
Max Temperature 41 °F 40 °F 57 °F (1976)
Min Temperature 30 °F 25 °F 4 °F (1987)
Degree Days  
Heating Degree Days 29 32  
Month to date heating degree days 561 537  
Since 1 July heating degree days 3247 3513  
Cooling Degree Days 0 0  
Month to date cooling degree days 0 0  
Year to date cooling degree days 0 0  
Moisture  
Dew Point 25 °F    
Average Humidity 66    
Maximum Humidity 92    
Minimum Humidity 40    
Precipitation  
Precipitation 0.03 in 0.11 in 0.88 in (1958)
Month to date precipitation 3.20 1.49  
Year to date precipitation 5.20 4.59  
Snow  
Snow 0.10 in 0.30 in 13.00 in (1958)
Month to date snowfall 30.4 4.5  
Since 1 July snowfall 51.3 18.0  
Snow Depth 14.00 in    
Sea Level Pressure  
Sea Level Pressure 29.89 in    
Wind  
Wind Speed 9 mph (North)    
Max Wind Speed 16 mph    
Max Gust Speed 23 mph    
Visibility 9 miles    
Events Snow    
T = Trace of Precipitation, MM = Missing Value Source: NWS Daily Summary

Daily Weather History Graph

Daily Weather History Graph

Search for Another Location

Airport:

Trip Planner

Search our weather history database for the weather conditions in past years. The results will help you decide how hot, cold, wet, or windy it might be!

Date:

Astronomy

Feb. 16, 2013 Rise Set
Actual Time 6:45 AM EST 5:28 PM EST
Civil Twilight 6:17 AM EST 5:56 PM EST
Nautical Twilight 5:45 AM EST 6:28 PM EST
Astronomical Twilight 5:13 AM EST 7:00 PM EST
Moon 9:52 AM EST (2/16) No Moon Set
Length of Visible Light 11h 39m
Length of Day
10h 42m
Waxing Crescent, 39% of the Moon is Illuminated
Feb 16
Waxing Crescent
Feb 17
First Quarter
Feb 25
Full
Mar 4
Last Quarter
Mar 11
New

Hourly Weather History & Observations

Time (EST) Temp. Windchill Dew Point Humidity Pressure Visibility Wind Dir Wind Speed Gust Speed Precip Events Conditions
12:52 AM 41.0 °F 35.8 °F 30.9 °F 67% 29.94 in 10.0 mi NNW 8.1 mph - N/A   Overcast
1:52 AM 39.9 °F 32.5 °F 30.0 °F 68% 29.95 in 10.0 mi NW 12.7 mph - N/A   Overcast
2:52 AM 37.0 °F 30.4 °F 32.0 °F 82% 29.94 in 10.0 mi North 9.2 mph - 0.00 in   Overcast
3:52 AM 35.1 °F 28.6 °F 30.9 °F 85% 29.93 in 4.0 mi North 8.1 mph - 0.01 in Snow Light Snow
4:39 AM 33.8 °F 27.0 °F 30.2 °F 87% 29.93 in 2.5 mi North 8.1 mph - 0.01 in Snow Light Snow
4:52 AM 33.8 °F 26.4 °F 30.2 °F 87% 29.93 in 2.5 mi North 9.2 mph - N/A Snow Light Snow
5:18 AM 33.8 °F 26.4 °F 30.2 °F 87% 29.93 in 4.0 mi North 9.2 mph - 0.01 in Snow Light Snow
5:52 AM 34.0 °F 27.2 °F 30.9 °F 89% 29.93 in 8.0 mi North 8.1 mph - 0.01 in Snow Light Snow
6:48 AM 33.8 °F 27.0 °F 30.2 °F 87% 29.95 in 9.0 mi North 8.1 mph - 0.00 in Snow Light Snow
6:52 AM 34.0 °F 25.5 °F 30.9 °F 89% 29.95 in 9.0 mi North 11.5 mph - 0.00 in   Overcast
7:52 AM 34.0 °F 27.2 °F 28.9 °F 82% 29.95 in 10.0 mi North 8.1 mph - N/A   Overcast
8:52 AM 33.1 °F 24.9 °F 28.0 °F 82% 29.95 in 10.0 mi North 10.4 mph - N/A   Overcast
9:52 AM 34.0 °F 26.0 °F 27.0 °F 75% 29.94 in 10.0 mi North 10.4 mph - N/A   Overcast
10:52 AM 35.1 °F 29.3 °F 28.0 °F 76% 29.93 in 10.0 mi North 6.9 mph - N/A   Overcast
11:52 AM 36.0 °F 29.6 °F 25.0 °F 64% 29.91 in 10.0 mi North 8.1 mph - N/A   Overcast
12:52 PM 37.0 °F 31.0 °F 23.0 °F 57% 29.89 in 10.0 mi North 8.1 mph - N/A   Overcast
1:52 PM 39.9 °F 35.8 °F 23.0 °F 51% 29.88 in 10.0 mi North 5.8 mph - N/A   Overcast
2:52 PM 39.0 °F 33.4 °F 19.0 °F 45% 29.85 in 10.0 mi North 8.1 mph - N/A   Overcast
3:52 PM 39.0 °F 35.7 °F 18.0 °F 43% 29.84 in 10.0 mi NNW 4.6 mph - N/A   Overcast
4:52 PM 37.0 °F 29.8 °F 19.0 °F 48% 29.83 in 10.0 mi NNW 10.4 mph - N/A   Overcast
5:52 PM 35.1 °F 26.4 °F 19.0 °F 52% 29.83 in 10.0 mi NNW 12.7 mph - N/A   Overcast
6:52 PM 34.0 °F 25.5 °F 19.0 °F 54% 29.83 in 10.0 mi NNW 11.5 mph - N/A   Overcast
7:52 PM 34.0 °F 27.2 °F 19.0 °F 54% 29.83 in 10.0 mi NNW 8.1 mph - N/A   Overcast
8:52 PM 32.0 °F 24.2 °F 17.6 °F 55% 29.81 in 10.0 mi NNW 9.2 mph - N/A   Overcast
9:52 PM 30.9 °F 22.2 °F 19.9 °F 64% 29.79 in 10.0 mi North 10.4 mph 19.6 mph N/A   Overcast
10:52 PM 30.0 °F 20.5 °F 21.9 °F 72% 29.76 in 10.0 mi North 11.5 mph - N/A   Overcast
11:52 PM 30.0 °F 18.7 °F 21.9 °F 72% 29.71 in 7.0 mi North 16.1 mph 23.0 mph 0.00 in   Overcast